SL-16 R/B (22803 NORAD) Tracking and Keplerian Element Data

This shows tracking and keplerian element data for the satellite.

Feedback or suggestion? Click here.




ElementValue
Catalog22803
NameSL-16 R/B
Epoch Orbit46538
Epoch Day16.12977045
Epoch Year2022
RAAN321.8381
Inclination70.9915
Eccentricity0.001757
Argument of Perigee348.0696
Mean Anonmoly12.0009
Mean Motion14.16849546
Decay Rate-2.54E-06
L11 22803U 93059B 22016.12977045 -.00000254 00000+0 -10278-3 0 9990
L22 22803 70.9915 321.8381 0017570 348.0696 12.0009 14.16849546465386

Live tracking and technical data element details for SL-16 R/B (NORAD 22803). SL-16 R/B can be tracked NOW for your location showing map with azimuth and elevation plus other details from your city location.

Track the satellite on the map from your city or location and see movement details for azimuth, elevation, latitude, longitude, range, height, and movement on the map or in text.







IsCatalogInMostPopularTable: catalog: 22803, numindb: 283
Update: records affected: 1



GetName: 22803 SL-16 R/B

Hit Count: updated at: Mon, 17 Jan 2022 01:29:40 GMT